Fairfield, IL

9:08 PM CST on December 10, 2019 (GMT -0600)
Fairfield Municipal

Weather History for KFWC - October, 2019

Change the Weather History Date:

Sunday, October 27, 2019

  Actual Average (KEVV) Record (KEVV)
Temperature  
Mean Temperature 54 °F -  
Max Temperature 65 °F 65 °F 85 °F (1963)
Min Temperature 44 °F 40 °F 27 °F (1961)
Degree Days  
Heating Degree Days 10    
Growing Degree Days 4 (Base 50)    
Moisture  
Dew Point 48 °F    
Average Humidity 86    
Maximum Humidity 100    
Minimum Humidity 54    
Precipitation  
Precipitation 0.00 in - - ()
Sea Level Pressure  
Sea Level Pressure 29.97 in    
Wind  
Wind Speed 3 mph ()    
Max Wind Speed 8 mph    
Max Gust Speed -    
Visibility 9.3 miles    
Events      
Averages and records for this station are not official NWS values.
T = Trace of Precipitation, MM = Missing Value Source: Averaged Metar Reports

Daily Weather History Graph

Daily Weather History Graph

Search for Another Location

Airport or City:

Astronomy

Oct. 27, 2019 Rise Set
Actual Time 7:14 AM CDT 5:59 PM CDT
Civil Twilight 6:47 AM CDT 6:27 PM CDT
Nautical Twilight 6:16 AM CDT 6:58 PM CDT
Astronomical Twilight 5:45 AM CDT 7:28 PM CDT
Moon 6:24 AM CDT (10/27) 6:08 PM CDT (10/27)
Length of Visible Light 11h 39m
Length of Day
10h 45m
Waning Crescent, 0% of the Moon is Illuminated
Oct 27
Waning Crescent
Oct 27
New
Nov 4
First Quarter
Nov 12
Full
Nov 19
Last Quarter

Hourly Weather History & Observations

Time (CDT) Temp. Dew Point Humidity Pressure Visibility Wind Dir Wind Speed Gust Speed Precip Events Conditions
12:15 AM 50.4 °F 49.1 °F 95% 29.77 in 10.0 mi SW 6.9 mph - N/A   Overcast
12:35 AM 50.4 °F 49.3 °F 96% 29.78 in 10.0 mi SW 8.1 mph - N/A   Overcast
12:55 AM 50.5 °F 49.3 °F 95% 29.79 in 10.0 mi SW 5.8 mph - N/A   Overcast
1:15 AM 50.5 °F 49.3 °F 95% 29.80 in 10.0 mi SW 5.8 mph - N/A   Overcast
1:35 AM 50.4 °F 49.3 °F 96% 29.80 in 10.0 mi SW 4.6 mph - N/A   Overcast
1:55 AM 50.4 °F 49.5 °F 97% 29.81 in 10.0 mi SW 5.8 mph - N/A   Overcast
2:15 AM 50.4 °F 49.5 °F 97% 29.82 in 10.0 mi SW 5.8 mph - N/A   Overcast
2:35 AM 50.2 °F 49.3 °F 97% 29.83 in 10.0 mi SW 4.6 mph - N/A   Overcast
2:55 AM 50.0 °F 49.1 °F 97% 29.84 in 10.0 mi WSW 5.8 mph - N/A   Overcast
3:15 AM 50.0 °F 48.7 °F 95% 29.85 in 10.0 mi WSW 4.6 mph - N/A   Overcast
3:35 AM 50.0 °F 48.6 °F 95% 29.86 in 10.0 mi WSW 3.5 mph - N/A   Overcast
3:55 AM 50.0 °F 48.4 °F 94% 29.87 in 10.0 mi WSW 4.6 mph - N/A   Overcast
4:15 AM 50.0 °F 48.4 °F 94% 29.88 in 10.0 mi WSW 4.6 mph - N/A   Overcast
4:35 AM 49.6 °F 48.2 °F 95% 29.88 in 10.0 mi WSW 3.5 mph - N/A   Overcast
4:55 AM 49.5 °F 48.7 °F 97% 29.89 in 10.0 mi SW 3.5 mph - N/A   Overcast
5:15 AM 49.3 °F 48.7 °F 98% 29.90 in 10.0 mi WSW 3.5 mph - N/A   Overcast
5:55 AM 48.6 °F 48.2 °F 99% 29.92 in 10.0 mi SW 3.5 mph - N/A   Overcast
6:15 AM 48.6 °F 47.7 °F 97% 29.93 in 10.0 mi WSW 3.5 mph - N/A   Overcast
6:35 AM 47.3 °F 47.3 °F 100% 29.94 in 7.0 mi WSW 3.5 mph - N/A   Mostly Cloudy
6:55 AM 46.6 °F 46.6 °F 100% 29.94 in 5.0 mi Calm Calm - N/A   Clear
7:15 AM 45.7 °F 45.7 °F 100% 29.95 in 3.0 mi Calm Calm - N/A   Clear
7:35 AM 44.2 °F 44.2 °F 100% 29.95 in 1.8 mi Calm Calm - N/A   Mist
7:55 AM 45.3 °F 45.3 °F 100% 29.96 in 2.0 mi Calm Calm - N/A   Clear
8:15 AM 47.1 °F 47.1 °F 100% 29.97 in 3.0 mi Calm Calm - N/A   Clear
8:35 AM 48.6 °F 48.6 °F 100% 29.98 in 4.0 mi Calm Calm - N/A   Clear
8:55 AM 50.0 °F 49.1 °F 97% 29.99 in 7.0 mi SSW 3.5 mph - N/A   Scattered Clouds
9:15 AM 50.9 °F 49.1 °F 94% 30.00 in 10.0 mi Calm Calm - N/A   Mostly Cloudy
9:35 AM 52.0 °F 49.1 °F 90% 30.01 in 10.0 mi Calm Calm - N/A   Scattered Clouds
9:55 AM 53.4 °F 49.5 °F 86% 30.01 in 10.0 mi WSW 3.5 mph - N/A   Scattered Clouds
10:15 AM 54.1 °F 49.1 °F 83% 30.01 in 10.0 mi SW 3.5 mph - N/A   Clear
10:35 AM 54.9 °F 48.4 °F 79% 30.02 in 10.0 mi Calm Calm - N/A   Clear
10:55 AM 56.3 °F 48.4 °F 75% 30.02 in 10.0 mi Calm Calm - N/A   Clear
11:15 AM 57.2 °F 48.2 °F 72% 30.03 in 10.0 mi Calm Calm - N/A   Clear
11:35 AM 58.6 °F 49.3 °F 71% 30.03 in 10.0 mi South 3.5 mph - N/A   Clear
11:55 AM 59.2 °F 48.9 °F 69% 30.02 in 10.0 mi Calm Calm - N/A   Clear
12:15 PM 61.0 °F 48.7 °F 64% 30.02 in 10.0 mi South 3.5 mph - N/A   Clear
12:35 PM 61.2 °F 48.4 °F 63% 30.01 in 10.0 mi South 3.5 mph - N/A   Clear
12:55 PM 62.2 °F 48.9 °F 62% 30.01 in 10.0 mi Calm Calm - N/A   Clear
1:35 PM 63.1 °F 49.3 °F 61% 30.00 in 10.0 mi Calm Calm - N/A   Clear
1:55 PM 63.3 °F 49.1 °F 60% 30.00 in 10.0 mi SSE 3.5 mph - N/A   Clear
2:15 PM 63.5 °F 48.7 °F 59% 30.00 in 10.0 mi Calm Calm - N/A   Clear
2:35 PM 64.6 °F 49.3 °F 58% 30.00 in 10.0 mi Calm Calm - N/A   Scattered Clouds
2:55 PM 64.6 °F 49.1 °F 57% 30.01 in 10.0 mi Calm Calm - N/A   Scattered Clouds
3:15 PM 65.1 °F 48.6 °F 55% 30.00 in 10.0 mi Calm Calm - N/A   Clear
3:35 PM 65.5 °F 49.3 °F 56% 30.00 in 10.0 mi South 3.5 mph - N/A   Scattered Clouds
3:55 PM 65.1 °F 48.0 °F 54% 30.00 in 10.0 mi Calm Calm - N/A   Scattered Clouds
4:15 PM 65.3 °F 48.0 °F 54% 30.00 in 10.0 mi Calm Calm - N/A   Clear
4:35 PM 64.9 °F 48.6 °F 55% 30.00 in 10.0 mi South 4.6 mph - N/A   Clear
4:55 PM 64.4 °F 49.1 °F 58% 30.00 in 10.0 mi SSE 3.5 mph - N/A   Clear
5:15 PM 63.5 °F 49.6 °F 61% 30.00 in 10.0 mi Calm Calm - N/A   Clear
5:35 PM 62.4 °F 49.6 °F 63% 29.99 in 10.0 mi Calm Calm - N/A   Clear
5:55 PM 59.4 °F 49.6 °F 70% 30.00 in 10.0 mi Calm Calm - N/A   Clear
6:15 PM 55.9 °F 49.6 °F 79% 30.00 in 10.0 mi Calm Calm - N/A   Clear
6:35 PM 53.6 °F 50.4 °F 89% 30.01 in 10.0 mi Calm Calm - N/A   Clear
6:55 PM 51.8 °F 51.1 °F 97% 30.01 in 10.0 mi Calm Calm - N/A   Clear
7:15 PM 51.3 °F 51.1 °F 99% 30.02 in 10.0 mi Calm Calm - N/A   Clear
7:35 PM 49.8 °F 49.8 °F 100% 30.02 in 10.0 mi Calm Calm - N/A   Clear
7:55 PM 49.1 °F 49.1 °F 100% 30.03 in 10.0 mi Calm Calm - N/A   Clear
8:15 PM 48.6 °F 48.6 °F 100% 30.03 in 10.0 mi Calm Calm - N/A   Clear
8:35 PM 48.7 °F 48.7 °F 100% 30.03 in 10.0 mi Calm Calm - N/A   Clear
8:55 PM 48.0 °F 48.0 °F 100% 30.04 in 10.0 mi Calm Calm - N/A   Clear
9:15 PM 50.5 °F 49.1 °F 95% 30.04 in 10.0 mi Calm Calm - N/A   Clear
9:35 PM 47.1 °F 46.9 °F 99% 30.04 in 10.0 mi Calm Calm - N/A   Clear
9:55 PM 47.5 °F 47.5 °F 100% 30.04 in 10.0 mi Calm Calm - N/A   Clear
10:15 PM 46.6 °F 46.6 °F 100% 30.04 in 10.0 mi Calm Calm - N/A   Clear
10:35 PM 46.4 °F 46.4 °F 100% 30.04 in 10.0 mi Calm Calm - N/A   Clear
10:55 PM 45.7 °F 45.7 °F 100% 30.04 in 10.0 mi Calm Calm - N/A   Clear
11:15 PM 45.3 °F 45.3 °F 100% 30.04 in 10.0 mi Calm Calm - N/A   Clear
11:35 PM 45.1 °F 45.1 °F 100% 30.04 in 7.0 mi Calm Calm - N/A   Clear
11:55 PM 46.2 °F 46.2 °F 100% 30.04 in 10.0 mi Calm Calm - N/A   Clear